This is the latest recevied weather packets stored in our database for station/object HG5OJG-6. If no packets are shown the sender has not sent any weather packets the latest 10 day(s).
| Time | Temp. | Humidity | Pressure | Rain* | Wind** | Luminosity | Snow |
|---|---|---|---|---|---|---|---|
| 1778082337 | 24.44° C | 41% | 1008.7 hPa | 0 mm | - | 169 W/m² | - |
| 1778072742 | 26.11° C | 35% | 1009.4 hPa | 0 mm | - | 587 W/m² | - |
| 1778071549 | 26.67° C | 37% | 1009.5 hPa | 0 mm | - | 587 W/m² | - |
| 1778070983 | 26.11° C | 37% | 1009.5 hPa | 0 mm | - | 663 W/m² | - |
| 1778064379 | 24.44° C | 45% | 1010.2 hPa | 0 mm | - | 828 W/m² | - |
| 1778063188 | 24.44° C | 47% | 1010.3 hPa | 0 mm | - | 513 W/m² | - |
| 1778058996 | 22.78° C | 49% | 1010.5 hPa | 0 mm | - | 467 W/m² | - |
| 1778052952 | 20° C | 56% | 1010.7 hPa | 0 mm | - | 444 W/m² | - |
| 1778051770 | 19.44° C | 57% | 1010.5 hPa | 0 mm | - | 377 W/m² | - |
| 1778051175 | 18.89° C | 58% | 1010.7 hPa | 0 mm | - | 374 W/m² | - |
| 1778050537 | 18.89° C | 58% | 1010.6 hPa | 0 mm | - | 321 W/m² | - |
| 1778049982 | 18.89° C | 60% | 1010.6 hPa | 0 mm | - | 305 W/m² | - |
| 1778046355 | 16.11° C | 66% | 1010.3 hPa | 0 mm | - | 144 W/m² | - |
| 1778045768 | 16.11° C | 66% | 1010.3 hPa | 0 mm | - | 123 W/m² | - |
| 1778043971 | 14.44° C | 72% | 1010.3 hPa | 0 mm | - | 89 W/m² | - |
| 1778040982 | 12.78° C | 73% | 1010 hPa | 0 mm | - | 32 W/m² | - |
| 1778040387 | 12.78° C | 72% | 1009.9 hPa | 0 mm | - | 27 W/m² | - |
| 1778037377 | 13.33° C | 70% | 1009.8 hPa | 0 mm | - | 1 W/m² | - |
| 1778035576 | 13.33° C | 69% | 1009.8 hPa | 0 mm | - | 0 W/m² | - |
| 1778030130 | 15° C | 63% | 1009.9 hPa | 0 mm | - | 0 W/m² | - |
| 1778028947 | 15° C | 62% | 1009.9 hPa | 0 mm | - | 0 W/m² | - |
| 1778026554 | 15.56° C | 61% | 1009.8 hPa | 0 mm | - | 0 W/m² | - |
| 1778024765 | 15.56° C | 60% | 1010.2 hPa | 0 mm | - | 0 W/m² | - |
| 1778024168 | 15.56° C | 59% | 1010.2 hPa | 0 mm | - | 0 W/m² | - |
| 1778012795 | 17.78° C | 52% | 1010.4 hPa | 0 mm | - | 0 W/m² | - |
* Rain latest hour (hover to see other rain measurements)
** Current wind speed in m/s (hover to see current wind gust speed)